Change the Weather History Date:

Friday, December 14, 2012

  Actual Average Record
Temperature  
Mean Temperature 30 °F -  
Max Temperature 33 °F 32 °F 48 °F (1998)
Min Temperature 26 °F 14 °F 1 °F (1999)
Degree Days  
Heating Degree Days 36    
Moisture  
Dew Point 29 °F    
Average Humidity 94    
Maximum Humidity 100    
Minimum Humidity 81    
Precipitation  
Precipitation 0.00 in - - ()
Sea Level Pressure  
Sea Level Pressure 29.70 in    
Wind  
Wind Speed 5 mph (ENE)    
Max Wind Speed 9 mph    
Max Gust Speed -    
Visibility 7 miles    
Events Snow    
Averages and records for this station are not official NWS values.
T = Trace of Precipitation, MM = Missing Value Source: NWS Daily Summary

Daily Weather History Graph

Daily Weather History Graph

Search for Another Location

Airport or City:

Trip Planner

Search our weather history database for the weather conditions in past years. The results will help you decide how hot, cold, wet, or windy it might be!

Date:

Astronomy

Dec. 14, 2012 Rise Set
Actual Time 8:02 AM MST 5:01 PM MST
Civil Twilight 7:30 AM MST 5:34 PM MST
Nautical Twilight 6:54 AM MST 6:10 PM MST
Astronomical Twilight 6:19 AM MST 6:45 PM MST
Moon 9:09 AM MST (12/14) 7:00 PM MST (12/14)
Length of Visible Light 10h 03m
Length of Day
8h 58m
Waxing Crescent, 3% of the Moon is Illuminated
Dec 14
Waxing Crescent
Dec 19
First Quarter
Dec 28
Full
Jan 4
Last Quarter
Jan 11
New

Hourly Weather History & Observations

Time (MST) Temp. Windchill Dew Point Humidity Pressure Visibility Wind Dir Wind Speed Gust Speed Precip Events Conditions
12:15 AM 32.0 °F 26.4 °F 32.0 °F 100% 29.77 in 10.0 mi WNW 5.8 mph - N/A   Overcast
12:35 AM 32.0 °F 26.4 °F 30.2 °F 93% 29.76 in 10.0 mi NW 5.8 mph - N/A   Overcast
12:55 AM 32.0 °F 26.4 °F 30.2 °F 93% 29.75 in 10.0 mi NW 5.8 mph - N/A Snow Light Snow
1:15 AM 32.0 °F 27.5 °F 30.2 °F 93% 29.75 in 10.0 mi NW 4.6 mph - N/A Snow Light Snow
1:35 AM 32.0 °F 27.5 °F 30.2 °F 93% 29.75 in 10.0 mi NW 4.6 mph - N/A   Overcast
1:55 AM 32.0 °F 27.5 °F 30.2 °F 93% 29.74 in 10.0 mi NW 4.6 mph - N/A   Overcast
2:15 AM 32.0 °F 25.6 °F 30.2 °F 93% 29.73 in 10.0 mi NW 6.9 mph - N/A   Overcast
2:35 AM 32.0 °F 26.4 °F 30.2 °F 93% 29.73 in 10.0 mi NW 5.8 mph - N/A Snow Light Snow
2:55 AM 32.0 °F 25.6 °F 30.2 °F 93% 29.73 in 10.0 mi NW 6.9 mph - N/A Snow Light Snow
3:15 AM 32.0 °F 26.4 °F 30.2 °F 93% 29.72 in 10.0 mi NW 5.8 mph - N/A   Overcast
4:15 AM 32.0 °F 28.7 °F 30.2 °F 93% 29.69 in 10.0 mi NNW 3.5 mph - N/A   Overcast
4:35 AM 32.0 °F 25.6 °F 30.2 °F 93% 29.68 in 10.0 mi WNW 6.9 mph - N/A   Overcast
4:55 AM 32.0 °F - 30.2 °F 93% 29.68 in 10.0 mi Calm Calm - N/A   Overcast
5:15 AM 32.0 °F 24.2 °F 30.2 °F 93% 29.68 in 2.5 mi SE 9.2 mph - N/A Snow Light Snow
5:35 AM 32.0 °F 27.5 °F 30.2 °F 93% 29.68 in 1.0 mi SE 4.6 mph - N/A Snow Light Snow
5:55 AM 32.0 °F - 30.2 °F 93% 29.67 in 2.0 mi Calm Calm - N/A Snow Light Snow
6:47 AM 30.2 °F - 30.2 °F 100% 29.67 in 5.0 mi Calm Calm - N/A Snow Light Snow
7:47 AM 30.2 °F - 30.2 °F 100% 29.66 in 5.0 mi Calm Calm - N/A Snow Light Snow
8:47 AM 30.2 °F - 30.2 °F 100% 29.66 in 5.0 mi Calm Calm - N/A Snow Light Snow
9:47 AM 32.0 °F - 30.2 °F 93% 29.67 in 5.0 mi Calm Calm - N/A Snow Light Snow
10:15 AM 32.0 °F - 30.2 °F 93% 29.67 in 2.0 mi Calm Calm - N/A Snow Light Snow
10:47 AM 30.2 °F 26.7 °F 30.2 °F 100% 29.67 in 2.0 mi ESE 3.5 mph - N/A Snow Light Snow
11:20 AM 32.0 °F 27.5 °F 30.2 °F 93% 29.66 in 3.0 mi SSE 4.6 mph - N/A   Overcast
11:47 AM 32.0 °F 27.5 °F 30.2 °F 93% 29.65 in 2.0 mi SE 4.6 mph - N/A   Overcast
12:52 PM 33.8 °F 30.8 °F 32.0 °F 93% 29.62 in 2.0 mi SE 3.5 mph - N/A   Mostly Cloudy
1:47 PM 33.8 °F 27.0 °F 32.0 °F 93% 29.62 in 3.0 mi ESE 8.1 mph - N/A   Overcast
2:47 PM 33.8 °F 27.0 °F 32.0 °F 93% 29.62 in 3.0 mi ESE 8.1 mph - N/A   Overcast
3:47 PM 33.8 °F 27.0 °F 30.2 °F 87% 29.62 in 5.0 mi East 8.1 mph - N/A   Mostly Cloudy
4:50 PM 33.8 °F 27.0 °F 28.4 °F 81% 29.65 in 7.0 mi ESE 8.1 mph - N/A   Mostly Cloudy
5:50 PM 30.2 °F 23.4 °F 28.4 °F 93% 29.67 in 7.0 mi SE 6.9 mph - N/A   Mostly Cloudy
6:50 PM 28.4 °F 22.2 °F 26.6 °F 93% 29.69 in 7.0 mi SSE 5.8 mph - N/A   Overcast
7:47 PM 28.4 °F 22.2 °F 26.6 °F 93% 29.71 in 7.0 mi ESE 5.8 mph - N/A   Mostly Cloudy
8:47 PM 28.4 °F 23.3 °F 26.6 °F 93% 29.73 in 7.0 mi ESE 4.6 mph - N/A   Overcast
9:47 PM 26.6 °F - 26.6 °F 100% 29.73 in 7.0 mi Calm Calm - N/A   Mostly Cloudy
10:15 PM 28.4 °F - 26.6 °F 93% 29.74 in 10.0 mi Calm Calm - N/A   Overcast
10:35 PM 28.4 °F 23.3 °F 28.4 °F 100% 29.74 in 10.0 mi SE 4.6 mph - N/A   Overcast
10:47 PM 28.4 °F - 26.6 °F 93% 29.73 in 7.0 mi Calm Calm - N/A   Overcast
10:55 PM 28.4 °F - 26.6 °F 93% 29.73 in 10.0 mi Calm Calm - N/A   Overcast
11:15 PM 28.4 °F - 26.6 °F 93% 29.74 in 10.0 mi Calm Calm - N/A   Overcast
11:35 PM 28.4 °F 24.6 °F 26.6 °F 93% 29.74 in 10.0 mi NW 3.5 mph - N/A   Overcast
11:55 PM 28.4 °F 23.3 °F 26.6 °F 93% 29.74 in 10.0 mi NNW 4.6 mph - N/A   Overcast